Weather History for Cape Girardeau, MO

Change the Weather History Date:

Tuesday, April 9, 2013

  Actual Average Record
Temperature  
Mean Temperature 71 °F 55 °F  
Max Temperature 82 °F 67 °F 86 °F (2011)
Min Temperature 60 °F 43 °F 22 °F (2007)
Degree Days  
Heating Degree Days 0 11  
Month to date heating degree days 108 108  
Since 1 July heating degree days 4069 4164  
Cooling Degree Days 6 1  
Month to date cooling degree days 8 3  
Year to date cooling degree days 8 7  
Growing Degree Days 21 (Base 50)    
Moisture  
Dew Point 60 °F    
Average Humidity 68    
Maximum Humidity 84    
Minimum Humidity 51    
Precipitation  
Precipitation 0.00 in 0.14 in 1.76 in (1969)
Month to date precipitation T 1.22  
Year to date precipitation 9.17 12.50  
Sea Level Pressure  
Sea Level Pressure 29.91 in    
Wind  
Wind Speed 13 mph (South)    
Max Wind Speed 24 mph    
Max Gust Speed 33 mph    
Visibility 10 miles    
Events      
T = Trace of Precipitation, MM = Missing Value Source: NWS Daily Summary

Daily Weather History Graph

Daily Weather History Graph

Search for Another Location

Airport:

Trip Planner

Search our weather history database for the weather conditions in past years. The results will help you decide how hot, cold, wet, or windy it might be!

Date:

Astronomy

Apr. 09, 2013 Rise Set
Actual Time 6:31 AM CDT 7:28 PM CDT
Civil Twilight 6:05 AM CDT 7:54 PM CDT
Nautical Twilight 5:33 AM CDT 8:26 PM CDT
Astronomical Twilight 5:01 AM CDT 8:59 PM CDT
Moon 5:53 AM CDT (4/9) 7:03 PM CDT (4/9)
Length of Visible Light 13h 49m
Length of Day
12h 56m
Waning Crescent, 1% of the Moon is Illuminated
Apr 9
Waning Crescent
Apr 10
New
Apr 18
First Quarter
Apr 25
Full
May 2
Last Quarter

Hourly Weather History & Observations

Time (CDT) Temp. Heat Index Dew Point Humidity Pressure Visibility Wind Dir Wind Speed Gust Speed Precip Events Conditions
12:53 AM 61.0 °F - 55.0 °F 81% 29.89 in 10.0 mi SE 9.2 mph - N/A   Partly Cloudy
1:53 AM 62.1 °F - 55.0 °F 78% 29.88 in 10.0 mi SSE 8.1 mph - N/A   Mostly Cloudy
2:53 AM 62.1 °F - 55.0 °F 78% 29.87 in 10.0 mi SE 6.9 mph - N/A   Mostly Cloudy
3:53 AM 63.0 °F - 55.0 °F 75% 29.88 in 10.0 mi South 9.2 mph - N/A   Clear
4:53 AM 62.1 °F - 55.0 °F 78% 29.89 in 10.0 mi South 9.2 mph - N/A   Clear
5:53 AM 61.0 °F - 55.9 °F 83% 29.91 in 10.0 mi SE 6.9 mph - N/A   Mostly Cloudy
6:53 AM 61.0 °F - 55.9 °F 83% 29.94 in 10.0 mi SE 6.9 mph - N/A   Mostly Cloudy
7:53 AM 64.9 °F - 57.9 °F 78% 29.95 in 10.0 mi South 9.2 mph - N/A   Scattered Clouds
8:53 AM 68.0 °F - 60.1 °F 76% 29.96 in 10.0 mi South 13.8 mph - N/A   Overcast
9:53 AM 71.1 °F - 62.1 °F 73% 29.97 in 10.0 mi South 16.1 mph - N/A   Overcast
10:53 AM 73.9 °F - 62.1 °F 66% 29.98 in 10.0 mi SSW 16.1 mph 27.6 mph N/A   Overcast
11:42 AM 77.0 °F - 62.6 °F 61% 29.97 in 10.0 mi SSW 18.4 mph 24.2 mph N/A   Mostly Cloudy
11:53 AM 77.0 °F - 62.1 °F 60% 29.96 in 10.0 mi South 19.6 mph 32.2 mph N/A   Mostly Cloudy
12:53 PM 78.1 °F - 62.1 °F 58% 29.94 in 10.0 mi SSW 19.6 mph 26.5 mph N/A   Mostly Cloudy
1:53 PM 79.0 °F - 63.0 °F 58% 29.92 in 10.0 mi South 15.0 mph - N/A   Mostly Cloudy
2:53 PM 80.1 °F 81.2 °F 62.1 °F 54% 29.90 in 10.0 mi SSW 12.7 mph 26.5 mph N/A   Mostly Cloudy
3:53 PM 80.1 °F 81.7 °F 64.0 °F 58% 29.88 in 10.0 mi South 16.1 mph 26.5 mph N/A   Mostly Cloudy
4:53 PM 81.0 °F 81.6 °F 60.1 °F 49% 29.87 in 10.0 mi South 18.4 mph 26.5 mph N/A   Mostly Cloudy
5:53 PM 80.1 °F 81.1 °F 61.0 °F 52% 29.87 in 10.0 mi SSW 17.3 mph - N/A   Partly Cloudy
6:53 PM 77.0 °F - 62.1 °F 60% 29.87 in 10.0 mi South 11.5 mph - N/A   Partly Cloudy
7:53 PM 75.0 °F - 62.1 °F 64% 29.87 in 10.0 mi SSE 10.4 mph - N/A   Clear
8:53 PM 72.0 °F - 63.0 °F 73% 29.88 in 10.0 mi SSE 11.5 mph - N/A   Clear
9:53 PM 71.1 °F - 62.1 °F 73% 29.89 in 10.0 mi SSE 8.1 mph - N/A   Clear
10:53 PM 71.1 °F - 63.0 °F 75% 29.85 in 10.0 mi SSE 11.5 mph - N/A   Clear
11:53 PM 70.0 °F - 63.0 °F 78% 29.85 in 10.0 mi South 11.5 mph - N/A   Clear